TimeCDT,TemperatureF,Dew PointF,Humidity,Sea Level PressureIn,VisibilityMPH,Wind Direction,Wind SpeedMPH,Gust SpeedMPH,PrecipitationIn,Events,Conditions,WindDirDegrees,DateUTC
12:58 AM,51.6,35.4,54,29.99,10.0,SE,10.4,-,N/A,,Clear,130,2013-04-21 05:58:00
1:56 AM,50.0,35.6,58,30.01,10.0,ESE,11.5,-,N/A,,Clear,120,2013-04-21 06:56:00
2:58 AM,49.6,36.5,61,29.99,10.0,ESE,12.7,-,N/A,,Scattered Clouds,120,2013-04-21 07:58:00
3:58 AM,50.4,35.8,57,29.99,10.0,ESE,12.7,-,N/A,,Clear,120,2013-04-21 08:58:00
4:58 AM,48.7,37.4,65,30.01,10.0,ESE,12.7,-,N/A,,Clear,110,2013-04-21 09:58:00
5:58 AM,46.8,38.7,73,30.04,10.0,ESE,11.5,-,N/A,,Clear,120,2013-04-21 10:58:00
6:58 AM,47.1,41.2,80,30.06,10.0,SE,10.4,-,N/A,,Clear,130,2013-04-21 11:58:00
7:56 AM,50.0,44.6,82,30.10,10.0,SE,10.4,-,N/A,,Light Drizzle,140,2013-04-21 12:56:00
7:58 AM,49.3,44.4,83,30.09,10.0,SE,10.4,-,N/A,,Light Drizzle,140,2013-04-21 12:58:00
8:58 AM,54.3,45.7,73,30.10,10.0,SE,17.3,-,0.00,Rain,Light Rain,140,2013-04-21 13:58:00
9:58 AM,58.5,46.8,65,30.10,10.0,South,18.4,-,0.00,Rain,Light Rain,170,2013-04-21 14:58:00
10:58 AM,61.0,48.0,62,30.10,10.0,South,18.4,25.3,0.00,Rain,Light Rain,170,2013-04-21 15:58:00
11:58 AM,64.4,48.4,56,30.09,10.0,South,15.0,24.2,0.00,Rain,Light Rain,170,2013-04-21 16:58:00
12:58 PM,66.7,47.7,50,30.07,10.0,South,10.4,-,0.00,,Light Drizzle,190,2013-04-21 17:58:00
1:36 PM,68.0,48.2,49,30.07,10.0,SSW,11.5,19.6,N/A,Rain,Light Rain,200,2013-04-21 18:36:00
1:40 PM,68.0,48.2,49,30.07,10.0,SSE,12.7,19.6,N/A,Rain,Light Rain,150,2013-04-21 18:40:00
1:58 PM,68.5,47.1,46,30.06,10.0,SSE,12.7,19.6,0.00,,Light Drizzle,160,2013-04-21 18:58:00
2:13 PM,69.8,48.2,46,30.06,10.0,South,13.8,19.6,N/A,,Partly Cloudy,170,2013-04-21 19:13:00
2:16 PM,69.8,48.2,46,30.06,10.0,South,16.1,20.7,N/A,Rain,Light Rain,170,2013-04-21 19:16:00
2:28 PM,69.8,48.2,46,30.06,10.0,South,13.8,20.7,N/A,,Partly Cloudy,170,2013-04-21 19:28:00
2:58 PM,70.3,47.8,45,30.04,10.0,SE,8.1,18.4,0.00,,Scattered Clouds,140,2013-04-21 19:58:00
3:58 PM,71.4,47.8,43,30.01,10.0,South,8.1,20.7,N/A,,Clear,170,2013-04-21 20:58:00
4:58 PM,71.8,48.4,43,29.99,10.0,SE,15.0,19.6,N/A,,Partly Cloudy,140,2013-04-21 21:58:00
5:58 PM,71.8,48.7,44,29.99,10.0,SE,15.0,20.7,N/A,,Clear,140,2013-04-21 22:58:00
6:58 PM,70.5,48.7,46,30.00,10.0,SE,12.7,-,N/A,,Clear,140,2013-04-21 23:58:00
7:58 PM,66.4,51.1,58,30.02,10.0,ESE,10.4,-,N/A,,Clear,120,2013-04-22 00:58:00
8:58 PM,62.2,51.1,67,30.03,10.0,ESE,10.4,-,N/A,,Clear,110,2013-04-22 01:58:00
9:58 PM,58.8,51.3,76,30.04,10.0,ESE,12.7,-,N/A,,Clear,110,2013-04-22 02:58:00
10:58 PM,58.8,50.4,73,30.04,10.0,ESE,16.1,-,N/A,,Clear,120,2013-04-22 03:58:00
11:58 PM,57.0,50.0,77,30.04,10.0,ESE,13.8,-,N/A,,Clear,120,2013-04-22 04:58:00